Lid_Strength_Index
8 7 7 8 8 8 8 8 10 8 8 7 6 6 5 4 4 4 4 4 3 3 3 3 3 2 2 2 2 1 2 2 2 1 1 1 1 1 1 1 1 1 1 1
9 7 8 8 7 7 7 8 8 7 8 5 4 4 5 5 4 4 4 3 4 3 3 3 3 3 2 2 2 1 2 2 2 2 1 1 1 1 1 1 1 1 1 1
11 8 8 10 8 7 7 7 7 9 6 5 5 5 5 4 4 4 4 3 3 3 3 3 3 2 2 2 2 2 2 2 2 2 2 2 1 1 1 1 1 1 1 1
11 9 14 8 6 6 7 6 6 6 5 5 5 4 4 3 4 4 3 3 3 2 3 2 2 2 2 2 2 2 2 2 2 2 2 2 2 2 1 1 1 1 1 2
12 12 9 8 7 7 7 7 5 6 5 5 4 4 4 3 3 3 3 3 2 2 2 2 2 2 2 2 2 2 2 2 2 2 2 2 2 2 2 2 2 2 2 2
10 13 14 9 6 5 6 10 6 6 6 6 5 8 6 3 3 3 2 2 2 2 2 2 2 2 2 3 3 3 2 2 2 1 2 2 2 2 1 1 2 2 2 2
11 12 10 6 6 5 12 10 6 6 6 5 6 6 4 3 3 2 2 2 2 1 3 3 2 2 3 3 3 2 2 2 2 1 2 1 1 1 2 2 2 2 2 2
11 13 14 6 7 10 7 5 5 5 5 5 5 4 4 4 3 2 3 2 2 3 3 2 2 2 3 3 2 2 2 2 2 1 1 1 2 2 2 2 2 2 2 2
9 9 7 5 6 5 5 5 6 5 5 4 4 4 4 4 3 3 3 2 2 3 3 2 2 2 3 3 2 2 2 2 2 2 2 2 2 2 2 2 2 3 3 3
9 8 7 6 5 4 4 5 5 5 5 5 5 4 4 4 3 3 3 2 3 3 3 3 2 2 2 2 2 2 2 2 2 2 2 2 2 2 2 2 3 3 3 3
9 8 7 6 5 5 5 4 5 4 5 5 5 6 5 5 4 4 4 3 3 4 4 3 3 2 2 2 2 3 2 2 2 3 2 5 8 6 2 4 3 2 2 2
12 9 8 7 5 4 5 5 4 5 5 4 5 5 4 5 4 4 4 3 4 4 4 3 3 2 2 2 2 2 3 3 3 2 2 3 4 6 13 12 14 13 12 3
8 7 6 5 4 4 4 4 3 4 4 5 4 5 5 5 5 5 3 3 3 3 3 3 3 2 2 2 2 2 3 2 2 3 2 2 2 3 4 8 13 14 13 11
6 6 7 6 6 4 4 3 3 3 4 4 4 4 4 4 3 3 3 3 3 3 3 2 3 3 2 1 2 2 2 4 2 2 2 2 2 2 2 3 3 5 12 9
6 5 5 4 4 4 5 4 4 4 4 3 3 3 3 3 3 3 2 2 2 2 3 3 2 2 1 1 2 2 2 2 2 2 2 2 2 2 2 2 2 2 4 7
6 5 6 6 5 5 5 5 6 5 5 5 4 3 3 3 3 3 2 2 3 3 2 3 3 2 1 1 2 2 2 3 2 2 2 2 2 2 2 2 2 2 2 3
7 7 7 7 7 7 7 5 5 5 6 4 4 3 3 3 3 3 3 2 2 2 1 2 2 1 1 1 1 2 2 1 3 1 2 2 2 2 2 2 2 2 2 2
5 5 6 6 6 7 7 6 6 5 4 4 3 3 3 3 4 4 3 2 2 2 2 2 1 1 1 0 1 1 1 2 1 2 2 2 1 1 1 1 2 3 2 4
6 6 5 5 4 5 5 5 4 4 3 3 3 3 3 3 3 3 3 3 3 4 3 1 2 1 1 1 1 1 1 2 2 2 3 2 2 1 1 2 2 2 2 3
5 4 4 4 3 4 4 4 3 3 3 3 3 3 3 3 3 3 3 3 3 2 1 1 1 1 1 1 1 1 1 2 2 2 2 2 2 2 2 3 2 2 2 1
4 4 4 4 4 3 3 3 3 3 3 3 3 3 3 2 3 2 3 4 2 1 1 1 1 1 1 1 1 1 1 2 2 2 2 2 2 2 2 1 1 2 2 1
4 4 4 5 4 3 3 3 3 3 3 3 2 2 3 3 2 3 2 3 2 4 2 1 2 4 3 2 1 1 1 2 2 2 2 2 2 2 1 2 2 1 1 1
4 4 3 3 3 3 2 2 2 2 2 2 2 2 2 3 3 4 4 1 1 2 2 3 2 4 4 1 1 1 1 1 2 1 1 1 1 1 1 1 1 1 2 1
4 3 3 2 2 2 3 2 1 1 1 1 1 1 1 2 2 1 1 2 2 2 1 2 2 2 4 1 1 1 1 1 1 1 1 4 1 1 1 1 1 1 0 1
3 3 2 3 3 4 3 2 2 2 2 1 1 1 0 1 1 1 1 1 3 2 1 4 2 2 1 1 1 1 1 1 1 1 1 0 1 1 1 1 1 0 1 0
3 3 2 2 2 2 2 2 3 2 2 3 2 1 1 1 1 1 0 1 1 1 1 1 1 1 1 1 1 1 0 1 1 1 1 1 0 0 0 0 0 0 0 0
2 4 2 2 2 3 3 2 2 2 2 2 2 1 1 1 1 1 2 1 1 1 1 1 1 2 1 1 1 1 1 1 2 1 0 0 0 1 0 0 0 -0 0 -0